Eugene, OR

3:22 AM PDT on September 26, 2017 (GMT -0700)
Mahlon Sweet

Weather History for KEUG - April, 2014

Change the Weather History Date:

Tuesday, April 29, 2014

  Actual Average Record
Temperature  
Mean Temperature 56 °F 52 °F  
Max Temperature 74 °F 64 °F 86 °F (1957)
Min Temperature 38 °F 41 °F 28 °F (1954)
Degree Days  
Heating Degree Days 9 13  
Month to date heating degree days 375 433  
Since 1 July heating degree days 4427 4329  
Cooling Degree Days 0 0  
Month to date cooling degree days 0 0  
Year to date cooling degree days 0 0  
Growing Degree Days 5 (Base 50)    
Moisture  
Dew Point 47 °F    
Average Humidity 73    
Maximum Humidity 93    
Minimum Humidity 53    
Precipitation  
Precipitation 0.00 in 0.09 in 0.94 in (1992)
Month to date precipitation 2.43 3.25  
Year to date precipitation 19.51 20.54  
Sea Level Pressure  
Sea Level Pressure 30.36 in    
Wind  
Wind Speed 6 mph (NNE)    
Max Wind Speed 15 mph    
Max Gust Speed 17 mph    
Visibility 9 miles    
Events Fog    
T = Trace of Precipitation, MM = Missing Value Source: NWS Daily Summary

Daily Weather History Graph

Daily Weather History Graph

Search for Another Location

Airport or City:

Trip Planner

Search our weather history database for the weather conditions in past years. The results will help you decide how hot, cold, wet, or windy it might be!

Date:

Astronomy

Apr. 29, 2014 Rise Set
Actual Time 6:06 AM PDT 8:14 PM PDT
Civil Twilight 5:35 AM PDT 8:45 PM PDT
Nautical Twilight 4:56 AM PDT 9:24 PM PDT
Astronomical Twilight 4:13 AM PDT 10:07 PM PDT
Moon 6:29 AM PDT (4/29) 9:00 PM PDT (4/29)
Length of Visible Light 15h 10m
Length of Day
14h 07m
New Moon, 0% of the Moon is Illuminated
Apr 29
New Moon
May 6
First Quarter
May 14
Full
May 21
Last Quarter
May 28
New

Hourly Weather History & Observations

Time (PDT) Temp. Windchill Dew Point Humidity Pressure Visibility Wind Dir Wind Speed Gust Speed Precip Events Conditions
12:54 AM 48.0 °F - 44.1 °F 86% 30.37 in 10.0 mi SSW 3.5 mph - N/A   Clear
1:54 AM 46.0 °F 44.8 °F 43.0 °F 89% 30.38 in 10.0 mi SW 3.5 mph - N/A   Clear
2:54 AM 46.0 °F 44.8 °F 43.0 °F 89% 30.39 in 10.0 mi South 3.5 mph - N/A   Clear
3:54 AM 44.1 °F 41.5 °F 41.0 °F 89% 30.40 in 10.0 mi SSE 4.6 mph - N/A   Clear
4:54 AM 39.0 °F 36.8 °F 37.9 °F 96% 30.42 in 4.0 mi East 3.5 mph - N/A   Clear
5:15 AM 41.0 °F - 39.0 °F 93% 30.41 in 2.5 mi Calm Calm - N/A   Clear
5:24 AM 41.0 °F - 39.0 °F 93% 30.41 in 6.0 mi Calm Calm - N/A   Clear
5:50 AM 39.2 °F - 37.4 °F 93% 30.42 in 6.0 mi Calm Calm - N/A Fog Scattered Clouds
5:54 AM 39.2 °F - 37.4 °F 93% 30.42 in 6.0 mi Calm Calm - N/A Fog Scattered Clouds
6:54 AM 41.0 °F 39.0 °F 39.2 °F 93% 30.43 in 5.0 mi NNW 3.5 mph - N/A Fog Scattered Clouds
7:54 AM 46.9 °F - 45.0 °F 93% 30.45 in 10.0 mi Calm Calm - N/A   Scattered Clouds
8:54 AM 52.0 °F - 46.0 °F 80% 30.45 in 10.0 mi Variable 3.5 mph - N/A   Scattered Clouds
9:54 AM 55.0 °F - 46.9 °F 74% 30.45 in 10.0 mi North 6.9 mph - N/A   Scattered Clouds
10:54 AM 59.0 °F - 48.0 °F 67% 30.43 in 10.0 mi NNE 6.9 mph - N/A   Scattered Clouds
11:54 AM 63.0 °F - 51.1 °F 65% 30.41 in 10.0 mi NE 6.9 mph - N/A   Mostly Cloudy
12:54 PM 66.9 °F - 52.0 °F 59% 30.39 in 10.0 mi North 10.4 mph - N/A   Mostly Cloudy
1:54 PM 69.8 °F - 53.6 °F 56% 30.36 in 10.0 mi North 10.4 mph - N/A   Scattered Clouds
2:54 PM 72.0 °F - 54.0 °F 53% 30.35 in 10.0 mi North 11.5 mph - N/A   Scattered Clouds
3:54 PM 73.0 °F - 55.0 °F 53% 30.32 in 10.0 mi North 12.7 mph - N/A   Scattered Clouds
4:54 PM 73.9 °F - 55.0 °F 52% 30.30 in 10.0 mi North 11.5 mph - N/A   Scattered Clouds
5:54 PM 73.0 °F - 57.0 °F 57% 30.29 in 10.0 mi North 10.4 mph - N/A   Scattered Clouds
6:54 PM 70.0 °F - 57.0 °F 63% 30.27 in 10.0 mi North 9.2 mph - N/A   Scattered Clouds
7:54 PM 64.0 °F - 55.0 °F 73% 30.26 in 10.0 mi North 9.2 mph - N/A   Scattered Clouds
8:54 PM 59.0 °F - 51.1 °F 75% 30.26 in 10.0 mi North 10.4 mph - N/A   Scattered Clouds
9:54 PM 57.9 °F - 48.9 °F 72% 30.27 in 10.0 mi North 4.6 mph - N/A   Clear
10:54 PM 55.0 °F - 46.0 °F 72% 30.28 in 10.0 mi SSE 3.5 mph - N/A   Clear
11:54 PM 57.0 °F - 46.0 °F 67% 30.29 in 10.0 mi ENE 5.8 mph - N/A   Clear